FENGYUN 1C DEB, 32155

Orbit data source: Space-Track

FENGYUN 1C DEB, 32155 is space debris in SSO originally from a launch on Mon, 10 May 1999 UTC launched from the Taiyaun Space Center, China (TSC). Fengyun 1C debris stems from the Chinese weather satellite Fengyun-1C, which was intentionally destroyed by a Chinese anti-satellite missile in 2007. This event dramatically increased the amount of space debris, with thousands of trackable fragments posing hazards to satellites and human spaceflight. The Fengyun 1C debris cloud has become a focal point in discussions about space sustainability and the need for international regulations to prevent the creation of new debris.

Loading next visibility...
Identifier
32155, 1999-025CSZ
Orbit
SSO
Country
Flag of CNCN / PRC
Related business
Manufacturer
Unknown
Mission
Spacecraft
Bus & Motor
Unknown
Mass
Unknown
Launch date (UTC)
1999-05-10 (27 years ago)
Launch vehicle
Unknown
Launch site
Taiyaun Space Center, China (TSC)
Object type
Payload
Rocket body
Debris
Shape & HBR
Unknown shape, 0.1 m
Radar Cross Section
Small (<0.1 m²)

Expand to show TLE details & history
Last TLE update: 1 week ago

TLE from 1 week ago
0 FENGYUN 1C DEB
1 32155U 99025CSZ 26160.57742055  .00001050  00000-0  38626-3 0  9995
2 32155  98.9665 101.3620 0071008  77.3886 283.5226 14.33443078727842
Epoch: 2026-06-09T13:51Z
TLE epoch observation values (Epoch: 2026-06-09T13:51:29.135Z)
Latitude
-0.00001°
Longitude
-4.45732°
Altitude
771.624 km
Speed
7.474 km/s
True Right ascension
06h 45m 26s
True Declination
0° 00' 00"
Sunlit
Object was in daylight at epoch
Visualization orbit readout
Latitude
Unknown
Longitude
Unknown
Altitude
Unknown
Speed
Unknown
Apparent Right ascension
Unknown
Apparent Declination
Unknown
Sunlit
N/A
Visualization observer readout
Local Sidereal Time
08:44:09
Azimuth
Unknown
Elevation
Unknown
Doppler factor
Unknown
Orbital elements
Apogee altitude
828.208 km
Perigee altitude
726.588 km
Semi-major axis
7,155.535 km
Eccentricity
0.0071
Inclination
98.9665°
RAAN
101.362°
Arg. of periapsis
77.3886°
True anomaly
282.72985°
Mean anomaly
283.5226°
Eccentric anomaly
283.12638°
Mean motion
3.58575 °/min
Orbital period
100.4 mins
BSTAR
0.00038626
Loading maneuver chart data...
Computing Atmospheric mass density...

Documentation

Showing up to 5 results
|